Weather reports worldwide

Advertisment
Manresa, Spain (8174): temperature & dewpoint: 19.03.2019 07:00:00 - 25.03.2019 07:00:00 (CET)Manresa, Spain (8174): wind speed & gusts: 19.03.2019 07:00:00 - 25.03.2019 07:00:00 (CET)Manresa, Spain (8174): wind direction: 19.03.2019 07:00:00 - 25.03.2019 07:00:00 (CET)Manresa, Spain (8174): reduced air pressure: 19.03.2019 07:00:00 - 25.03.2019 07:00:00 (CET)Manresa, Spain (8174): visibility: 19.03.2019 07:00:00 - 25.03.2019 07:00:00 (CET)Manresa, Spain (8174): sunshine duration: 19.03.2019 07:00:00 - 25.03.2019 07:00:00 (CET)Manresa, Spain (8174): precipitation: 19.03.2019 07:00:00 - 25.03.2019 07:00:00 (CET)
Date & Time tt [°C] td [°C] ff [km/h] ff [kn] fx [km/h] fx [kn] dd ppp [hPa] vv [km] sd [min] rr [mm]
25.03.2019 07:00:00 - - - - - - - - - - -
25.03.2019 06:00:00 4,2 1,1 0 0 8 5 N 1022,2 20 0 0,0
25.03.2019 05:00:00 5,3 1,5 5 3 8 4 NNE 1022,0 20 0 0,0
25.03.2019 04:00:00 5,9 1,5 3 1 8 4 NE 1022,4 20 0 0,0
25.03.2019 03:00:00 6,7 1,7 3 2 6 4 NNE 1022,8 20 0 0,0
25.03.2019 02:00:00 7,5 1,9 4 2 7 4 NNE 1023,1 20 0 0,0
25.03.2019 01:00:00 8,6 2,1 3 1 7 4 NE 1023,1 20 0 -
25.03.2019 00:00:00 9,7 2,3 3 2 9 5 NNE 1023,2 20 0 0,0
24.03.2019 23:00:00 11,2 2,5 6 3 9 5 NNE 1022,9 20 0 0,0
24.03.2019 22:00:00 12,8 1,5 3 1 5 3 WSW 1022,7 20 0 0,0
24.03.2019 21:00:00 14,9 1,1 3 2 13 7 WSW 1022,3 20 0 0,0
24.03.2019 20:00:00 17,1 0,2 8 4 22 12 S 1021,7 20 0 0,0
24.03.2019 19:00:00 18,8 1,3 10 5 26 14 S 1020,9 20 56 -
24.03.2019 18:00:00 21,1 0,9 14 8 29 16 S 1020,1 20 60 0,0
24.03.2019 17:00:00 22,4 0,9 15 8 31 17 S 1019,8 20 60 0,0
24.03.2019 16:00:00 23,4 0,4 13 7 27 14 S 1020,0 20 60 0,0
24.03.2019 15:00:00 24,6 -3,0 6 3 22 12 S 1020,1 20 60 0,0
24.03.2019 14:00:00 24,0 -1,7 5 3 15 8 SSW 1021,0 19 60 0,0
24.03.2019 13:00:00 22,3 -0,5 5 3 13 7 S 1022,3 20 60 -
24.03.2019 12:00:00 18,6 0,2 3 2 8 5 NW 1023,6 20 60 0,0
24.03.2019 11:00:00 15,9 1,3 2 1 6 4 SE 1024,4 20 60 0,0
24.03.2019 10:00:00 11,4 1,1 4 2 6 3 NNE 1025,5 19 60 0,0
24.03.2019 09:00:00 7,7 0,6 3 2 6 4 NE 1026,0 20 60 0,0
24.03.2019 08:00:00 4,0 -0,3 5 3 8 4 NNE 1026,5 20 6 0,0
24.03.2019 07:00:00 3,0 -0,7 2 1 6 3 N 1026,3 20 0 -
24.03.2019 06:00:00 4,3 -0,3 5 3 8 4 NNE 1026,0 20 0 0,0
24.03.2019 05:00:00 4,5 -0,3 3 2 6 3 NNE 1025,8 20 0 0,0
24.03.2019 04:00:00 5,4 0,0 4 2 7 4 NNE 1025,6 20 0 0,0
24.03.2019 03:00:00 6,0 0,0 4 2 7 4 NNE 1025,7 20 0 0,0
24.03.2019 02:00:00 7,5 0,0 4 2 8 4 NNE 1025,7 20 0 0,0
24.03.2019 01:00:00 8,5 1,7 3 2 7 4 WNW 1025,8 20 0 -
24.03.2019 00:00:00 9,3 0,4 4 2 11 6 NNE 1025,8 20 0 0,0
23.03.2019 23:00:00 11,0 -0,3 5 3 9 5 NNE 1025,4 20 0 0,0
23.03.2019 22:00:00 12,7 -0,3 3 1 6 4 W 1025,0 20 0 0,0
23.03.2019 21:00:00 14,3 -1,7 2 1 6 3 SSE 1024,5 20 0 0,0
23.03.2019 20:00:00 16,1 -1,4 1 1 12 6 ESE 1023,8 20 0 0,0
23.03.2019 19:00:00 18,9 -1,0 5 3 22 12 S 1023,0 20 0 -
23.03.2019 18:00:00 21,0 -2,7 12 6 29 16 S 1022,2 20 58 0,0
23.03.2019 17:00:00 23,2 -1,7 11 6 26 14 S 1021,8 16 60 0,0
23.03.2019 16:00:00 23,6 -4,5 11 6 21 11 S 1021,9 20 60 0,0
23.03.2019 15:00:00 23,6 -4,5 7 4 14 8 S 1022,5 20 60 0,0
23.03.2019 14:00:00 23,0 -2,7 5 3 15 8 WSW 1023,6 20 60 0,0
23.03.2019 13:00:00 20,7 -2,5 4 2 8 4 NW 1025,0 20 60 -
23.03.2019 12:00:00 17,3 1,7 4 2 8 4 NE 1026,1 19 60 0,0
23.03.2019 11:00:00 14,0 1,9 3 2 7 4 NNW 1027,3 16 60 0,0
23.03.2019 10:00:00 9,7 1,3 3 2 7 4 WSW 1028,4 20 60 0,0
23.03.2019 09:00:00 6,2 0,4 4 2 7 4 NE 1029,0 18 60 0,0
23.03.2019 08:00:00 2,7 -0,5 4 2 8 5 NNE 1029,3 20 2 0,0
23.03.2019 07:00:00 2,3 -0,7 4 2 7 4 NE 1029,2 20 0 -
23.03.2019 06:00:00 2,6 -0,5 3 2 6 4 NNE 1028,8 13 0 0,0
23.03.2019 05:00:00 3,2 -0,7 2 1 6 3 N 1028,6 19 0 0,0
23.03.2019 04:00:00 3,7 -0,3 3 2 7 4 NE 1028,7 20 0 0,0
23.03.2019 03:00:00 4,5 0,4 2 1 5 3 NE 1028,9 20 0 0,0
23.03.2019 02:00:00 5,4 0,4 2 1 6 3 NNW 1028,9 20 0 0,0
23.03.2019 01:00:00 6,2 0,6 4 2 11 6 NNE 1029,0 19 0 -
23.03.2019 00:00:00 7,4 0,9 6 3 9 5 NNE 1029,2 20 0 0,0
22.03.2019 23:00:00 9,2 0,9 5 3 7 4 NE 1028,9 9 0 0,0
22.03.2019 22:00:00 11,0 0,2 3 1 6 3 NNW 1028,3 20 0 0,0
22.03.2019 21:00:00 12,6 -0,7 3 1 11 6 S 1027,6 12 0 0,0
22.03.2019 20:00:00 14,3 -1,0 6 4 19 11 SSW 1026,7 20 0 0,0
22.03.2019 19:00:00 15,9 -0,7 11 6 24 13 S 1025,9 20 45 -
22.03.2019 18:00:00 18,0 -0,3 12 6 30 16 S 1025,0 20 60 0,0
22.03.2019 17:00:00 20,2 1,1 14 7 28 15 S 1024,4 20 60 0,0
22.03.2019 16:00:00 22,2 0,6 5 3 15 8 SSW 1024,3 20 60 0,0
22.03.2019 15:00:00 21,4 0,6 6 3 16 9 W 1025,0 20 60 0,0
22.03.2019 14:00:00 20,8 2,1 6 4 12 7 WSW 1025,9 20 60 0,0
22.03.2019 13:00:00 19,1 0,2 4 2 10 5 W 1027,0 20 60 -
22.03.2019 12:00:00 16,6 -1,0 2 1 7 4 WSW 1027,9 20 60 0,0
22.03.2019 11:00:00 13,4 -0,3 3 2 7 4 W 1028,7 20 60 0,0
22.03.2019 10:00:00 8,5 -0,7 4 2 7 4 NNE 1029,5 20 60 0,0
22.03.2019 09:00:00 5,2 -0,7 3 2 6 4 ENE 1029,8 17 60 0,0
22.03.2019 08:00:00 1,8 -1,7 6 3 9 5 NNE 1030,4 19 4 0,0
22.03.2019 07:00:00 1,2 -2,0 3 2 6 3 NNE 1030,0 20 0 -
22.03.2019 06:00:00 1,8 -1,7 5 3 8 4 NNE 1029,7 20 0 0,0
22.03.2019 05:00:00 1,8 -1,4 2 1 6 3 NNW 1029,5 15 0 0,0
22.03.2019 04:00:00 2,1 -1,4 2 1 5 3 NNE 1029,4 20 0 0,0
22.03.2019 03:00:00 2,8 -1,4 3 2 6 4 NNE 1029,4 19 0 0,0
22.03.2019 02:00:00 3,9 -1,0 3 1 9 5 NE 1029,6 20 0 0,0
22.03.2019 01:00:00 4,5 -0,7 3 1 10 5 NNE 1029,5 16 0 -
22.03.2019 00:00:00 5,4 0,0 3 1 8 4 NNE 1029,4 13 0 0,0
21.03.2019 23:00:00 7,0 0,4 4 2 7 4 NNE 1029,2 20 0 0,0
21.03.2019 22:00:00 8,3 0,2 4 2 9 5 W 1028,8 19 0 0,0
21.03.2019 21:00:00 10,2 0,4 3 2 18 10 W 1028,3 20 0 0,0
21.03.2019 20:00:00 12,0 0,4 9 5 18 10 S 1027,1 20 0 0,0
21.03.2019 19:00:00 14,0 -1,0 6 4 18 10 S 1026,1 20 52 -
21.03.2019 18:00:00 15,4 -1,2 10 6 23 12 S 1025,5 20 60 0,0
21.03.2019 17:00:00 16,4 -1,7 11 6 26 14 S 1025,3 20 60 0,0
21.03.2019 16:00:00 16,9 -2,7 12 7 24 13 S 1025,5 20 60 0,0
21.03.2019 15:00:00 17,4 -3,3 9 5 24 13 SW 1025,8 10 60 0,0
21.03.2019 14:00:00 16,8 -2,2 12 6 28 15 S 1026,8 20 60 0,0
21.03.2019 13:00:00 16,0 -4,5 5 3 13 7 WNW 1027,7 20 60 -
21.03.2019 12:00:00 13,6 -2,7 4 2 10 6 NW - - 60 0,0
21.03.2019 11:00:00 10,1 -1,7 4 2 11 6 NNE 1029,4 9 60 0,0
21.03.2019 10:00:00 6,8 -0,7 3 1 8 5 NNE 1030,2 20 60 0,0
21.03.2019 09:00:00 3,8 -1,0 4 2 10 5 NNE 1030,5 20 60 0,0
21.03.2019 08:00:00 0,5 -1,7 4 2 8 4 NNE 1030,7 19 5 0,0
21.03.2019 07:00:00 0,0 -2,0 3 1 9 5 NNW 1030,3 14 0 -
21.03.2019 06:00:00 0,5 -2,0 4 2 8 5 NNE 1030,1 17 0 0,0
21.03.2019 05:00:00 1,3 -1,2 4 2 8 4 NNE 1029,8 17 0 0,0
21.03.2019 04:00:00 2,0 -1,0 4 2 11 6 NE 1029,5 18 0 0,0
21.03.2019 03:00:00 2,6 -0,7 7 4 11 6 NNE 1029,8 20 0 0,0
21.03.2019 02:00:00 3,9 0,0 6 4 10 5 NE 1029,8 20 0 0,0
21.03.2019 01:00:00 4,9 0,2 3 2 8 4 NNE 1029,9 20 0 -
21.03.2019 00:00:00 6,0 0,6 5 3 15 8 NE 1029,8 20 0 0,0
20.03.2019 23:00:00 8,0 0,9 5 3 11 6 E 1029,6 20 0 0,0
20.03.2019 22:00:00 9,1 0,9 3 1 11 6 NW 1029,5 20 0 0,0
20.03.2019 21:00:00 10,0 0,6 6 3 20 11 SW 1029,2 20 0 0,0
20.03.2019 20:00:00 10,7 0,4 8 5 23 12 S 1028,5 20 0 0,0
20.03.2019 19:00:00 11,9 -1,0 11 6 29 16 S 1027,6 20 52 -
20.03.2019 18:00:00 13,7 0,0 15 8 33 18 S 1026,4 20 60 0,0
20.03.2019 17:00:00 15,1 -1,4 14 8 30 16 S 1025,4 20 60 0,0
20.03.2019 16:00:00 16,3 -3,3 6 3 16 9 SE 1025,2 20 59 0,0
20.03.2019 15:00:00 16,5 -3,6 8 5 21 11 W 1025,7 20 60 0,0
20.03.2019 14:00:00 15,4 -3,0 8 5 19 10 SE 1026,5 20 60 0,0
20.03.2019 13:00:00 14,0 -3,0 4 2 13 7 N 1027,5 20 60 -
20.03.2019 12:00:00 12,0 1,1 5 3 9 5 WNW 1028,3 20 60 0,0
20.03.2019 11:00:00 9,9 1,7 3 2 7 4 WSW 1029,0 20 60 0,0
20.03.2019 10:00:00 7,0 1,5 3 2 6 4 NE 1029,7 20 60 0,0
20.03.2019 09:00:00 4,1 0,2 4 2 6 4 NNE 1029,8 19 60 0,0
20.03.2019 08:00:00 0,7 -1,0 4 2 9 5 NNE 1029,8 13 3 0,0
20.03.2019 07:00:00 0,5 -1,2 6 3 11 6 ENE 1029,1 13 0 -
20.03.2019 06:00:00 0,7 -0,7 5 3 7 4 NNE 1028,5 11 0 0,0
20.03.2019 05:00:00 1,7 0,0 5 3 11 6 NE 1028,0 17 0 0,0
20.03.2019 04:00:00 2,2 0,4 5 3 8 4 NNE 1027,7 19 0 0,0
20.03.2019 03:00:00 2,8 0,6 3 2 9 5 NNE 1028,0 20 0 0,0
20.03.2019 02:00:00 3,9 1,3 5 3 14 8 NNE 1028,0 20 0 0,0
20.03.2019 01:00:00 4,9 2,1 6 4 14 7 NNE 1027,9 20 0 -
20.03.2019 00:00:00 6,7 3,2 7 4 12 6 NE 1027,6 20 0 0,0
19.03.2019 23:00:00 8,0 4,6 2 1 8 4 WSW 1027,1 20 0 0,0
19.03.2019 22:00:00 9,5 5,3 4 2 8 5 W 1026,3 20 0 0,0
19.03.2019 21:00:00 10,0 4,6 4 2 12 6 SSW 1025,7 20 0 0,0
19.03.2019 20:00:00 10,3 4,3 6 3 15 8 S 1024,9 20 0 0,0
19.03.2019 19:00:00 10,8 4,3 7 4 19 10 S 1023,9 20 7 -
19.03.2019 18:00:00 11,4 3,2 10 5 - - S 1023,0 20 0 0,0
19.03.2019 17:00:00 12,0 2,5 11 6 25 14 S 1022,3 20 1 0,0
19.03.2019 16:00:00 13,1 3,9 14 7 29 16 S 1021,8 20 22 0,0
19.03.2019 15:00:00 13,3 1,3 10 5 24 13 S 1021,6 20 5 0,0
19.03.2019 14:00:00 14,3 -1,4 9 5 16 9 S 1021,5 20 10 0,0
19.03.2019 13:00:00 15,5 -3,9 5 3 13 7 N 1021,7 20 56 -
19.03.2019 12:00:00 14,0 -1,7 6 3 14 8 NNW 1022,1 20 60 0,0
19.03.2019 11:00:00 11,9 0,4 5 3 13 7 NNE 1022,4 20 60 0,0
19.03.2019 10:00:00 10,1 0,4 5 3 11 6 NE 1022,9 20 37 0,0
19.03.2019 09:00:00 7,7 1,9 5 3 15 8 NNE 1023,3 20 54 0,0
19.03.2019 08:00:00 4,8 1,7 6 4 12 7 NE 1023,3 20 0 0,0
19.03.2019 07:00:00 5,1 1,7 7 4 12 6 ENE 1023,0 20 0 -

tt = temperature
td = dewpoint
ff = wind speed
fx = gusts
dd = wind direction
ppp = reduced air pressure
vv = visibility
sd = sunshine duration
rr = precipitation

Next stations